Location: Newark
(44.6768°N, 22.5302°E)
Time: 14:36:16
(UTC+00:00)

UKube-1 - Pass Details

Date: 02 July 2022
Orbit: 608 x 615 km, 98.4° (Epoch: 18 August)

Event Time Altitude Azimuth Distance (km) Brightness Sun altitude
Rises 20:45:48 0° 11° (N) 2,895 ? -18.0°
Reaches altitude 10° 20:48:00 10° 9° (N) 1,984 ? -18.1°
Maximum altitude 20:52:17 69° 287° (WNW) 660 ? -18.5°
Enters shadow 20:54:40 25° 209° (SSW) 1,230 ? -18.6°
